Location: Andershausen
(51.8462°N, 9.8595°E)
Time: 09:23:36
(UTC+00:00)

Timation 2 Rocket - Pass Details

Date: 18 November 2025
Orbit: 904 x 1074 km, 70.0° (Epoch: 11 December)

Event Time Altitude Azimuth Distance (km) Brightness Sun altitude
Rises 17:22:58 0° 213° (SSW) 3,850 7.8 -17.7°
Reaches altitude 10° 17:25:35 10° 214° (SW) 2,903 7.1 -18.1°
Maximum altitude 17:32:28 83° 303° (WNW) 1,087 4.2 -19.2°
Enters shadow 17:38:22 15° 31° (NNE) 2,547 5.8 -20.1°
